Time,TemperatureF,DewpointF,PressureIn,WindDirection,WindDirectionDegrees,WindSpeedMPH,WindSpeedGustMPH,Humidity,HourlyPrecipIn,Conditions,Clouds,dailyrainin,SoftwareType,DateUTC
2015-03-26 00:00:00,59.0,55.4,30.09,NE,50,0.0,3.0,88,0.00,,,0.00,Wunderground v.1.15,2015-03-26 04:00:00,
2015-03-26 00:05:00,59.0,55.4,30.09,NE,53,0.0,3.0,88,0.00,,,0.00,Wunderground v.1.15,2015-03-26 04:05:00,
2015-03-26 00:15:00,58.9,55.4,30.08,NE,52,0.0,3.0,88,0.00,,,0.00,Wunderground v.1.15,2015-03-26 04:15:00,
2015-03-26 00:20:00,58.8,55.6,30.08,ENE,63,0.0,3.0,89,0.00,,,0.00,Wunderground v.1.15,2015-03-26 04:20:00,
2015-03-26 00:25:00,58.8,55.6,30.08,ENE,57,0.0,3.0,89,0.00,,,0.00,Wunderground v.1.15,2015-03-26 04:25:00,
2015-03-26 00:35:00,58.8,55.6,30.07,NE,53,0.0,3.0,89,0.00,,,0.00,Wunderground v.1.15,2015-03-26 04:35:00,
2015-03-26 00:40:00,58.7,55.5,30.07,ENE,60,0.0,3.0,89,0.00,,,0.00,Wunderground v.1.15,2015-03-26 04:40:00,
2015-03-26 00:45:00,58.8,55.9,30.07,ENE,61,0.0,3.0,90,0.00,,,0.00,Wunderground v.1.15,2015-03-26 04:45:00,
2015-03-26 00:50:00,58.8,55.9,30.07,East,79,0.0,3.0,90,0.00,,,0.00,Wunderground v.1.15,2015-03-26 04:50:00,
2015-03-26 00:55:00,58.8,55.9,30.07,ENE,57,0.0,3.0,90,0.00,,,0.00,Wunderground v.1.15,2015-03-26 04:55:00,
2015-03-26 01:05:00,58.9,56.3,30.07,NE,51,0.0,3.0,91,0.00,,,0.00,Wunderground v.1.15,2015-03-26 05:05:00,
2015-03-26 01:10:00,58.9,56.3,30.06,NE,54,0.0,3.0,91,0.00,,,0.00,Wunderground v.1.15,2015-03-26 05:10:00,
2015-03-26 01:15:00,58.9,56.6,30.06,NE,54,0.0,3.0,92,0.00,,,0.00,Wunderground v.1.15,2015-03-26 05:15:00,
2015-03-26 01:20:00,59.0,56.7,30.06,NE,54,0.0,3.0,92,0.00,,,0.00,Wunderground v.1.15,2015-03-26 05:20:00,
2015-03-26 01:30:00,59.0,56.7,30.06,NE,54,0.0,3.0,92,0.00,,,0.00,Wunderground v.1.15,2015-03-26 05:30:00,
2015-03-26 01:35:00,59.1,57.1,30.05,NE,55,0.0,3.0,93,0.00,,,0.00,Wunderground v.1.15,2015-03-26 05:35:00,
2015-03-26 01:40:00,59.1,57.1,30.05,NE,55,0.0,3.0,93,0.00,,,0.00,Wunderground v.1.15,2015-03-26 05:40:00,
2015-03-26 01:50:00,59.1,57.1,30.04,NE,51,1.0,1.0,93,0.00,,,0.00,Wunderground v.1.15,2015-03-26 05:50:00,
2015-03-26 01:55:00,59.0,57.3,30.04,ENE,58,1.0,3.0,94,0.00,,,0.00,Wunderground v.1.15,2015-03-26 05:55:00,
2015-03-26 02:00:00,59.0,57.3,30.04,ENE,59,0.0,3.0,94,0.00,,,0.00,Wunderground v.1.15,2015-03-26 06:00:00,
2015-03-26 02:05:00,59.0,57.3,30.03,ENE,59,0.0,3.0,94,0.00,,,0.00,Wunderground v.1.15,2015-03-26 06:05:00,
2015-03-26 02:15:00,59.0,57.6,30.03,ENE,59,0.0,3.0,95,0.00,,,0.00,Wunderground v.1.15,2015-03-26 06:15:00,
2015-03-26 02:20:00,59.0,57.6,30.03,ENE,59,0.0,3.0,95,0.00,,,0.00,Wunderground v.1.15,2015-03-26 06:20:00,
2015-03-26 02:25:00,59.0,57.6,30.03,ENE,59,0.0,3.0,95,0.00,,,0.00,Wunderground v.1.15,2015-03-26 06:25:00,
2015-03-26 02:35:00,59.1,58.0,30.02,ENE,58,0.0,3.0,96,0.00,,,0.00,Wunderground v.1.15,2015-03-26 06:35:00,
2015-03-26 02:40:00,59.0,57.9,30.01,ENE,58,0.0,3.0,96,0.00,,,0.00,Wunderground v.1.15,2015-03-26 06:40:00,
2015-03-26 02:45:00,58.7,57.9,30.01,NE,36,0.0,3.0,97,0.00,,,0.01,Wunderground v.1.15,2015-03-26 06:45:00,
2015-03-26 02:50:00,58.7,57.9,30.01,NE,36,0.0,3.0,97,0.00,,,0.01,Wunderground v.1.15,2015-03-26 06:50:00,
2015-03-26 03:00:00,58.6,58.0,30.00,NE,50,0.0,3.0,98,0.00,,,0.01,Wunderground v.1.15,2015-03-26 07:00:00,
2015-03-26 03:05:00,58.4,57.8,30.00,NE,51,0.0,3.0,98,0.00,,,0.01,Wunderground v.1.15,2015-03-26 07:05:00,
2015-03-26 03:10:00,58.5,58.2,30.00,NE,50,0.0,3.0,99,0.00,,,0.02,Wunderground v.1.15,2015-03-26 07:10:00,
2015-03-26 03:15:00,58.4,58.1,30.00,NE,49,0.0,3.0,99,0.00,,,0.02,Wunderground v.1.15,2015-03-26 07:15:00,
2015-03-26 03:25:00,57.7,57.4,30.00,WNW,292,1.0,5.0,99,0.00,,,0.02,Wunderground v.1.15,2015-03-26 07:25:00,
2015-03-26 03:30:00,57.0,56.7,29.99,WNW,282,3.0,3.0,99,0.00,,,0.02,Wunderground v.1.15,2015-03-26 07:30:00,
2015-03-26 03:35:00,56.8,56.5,29.98,ENE,75,1.0,3.0,99,0.00,,,0.02,Wunderground v.1.15,2015-03-26 07:35:00,
2015-03-26 03:45:00,56.8,56.8,29.98,ENE,68,0.0,3.0,100,0.00,,,0.03,Wunderground v.1.15,2015-03-26 07:45:00,
2015-03-26 03:50:00,56.6,56.6,29.98,ENE,67,0.0,3.0,100,0.00,,,0.03,Wunderground v.1.15,2015-03-26 07:50:00,
2015-03-26 03:55:00,56.6,56.6,29.98,ENE,67,0.0,3.0,100,0.00,,,0.03,Wunderground v.1.15,2015-03-26 07:55:00,
2015-03-26 04:00:00,56.6,56.6,29.97,ENE,67,0.0,3.0,100,0.00,,,0.03,Wunderground v.1.15,2015-03-26 08:00:00,
2015-03-26 04:10:00,56.8,56.8,29.97,ENE,67,0.0,3.0,100,0.00,,,0.03,Wunderground v.1.15,2015-03-26 08:10:00,
2015-03-26 04:15:00,56.8,56.8,29.97,ENE,67,0.0,3.0,100,0.00,,,0.04,Wunderground v.1.15,2015-03-26 08:15:00,
2015-03-26 04:20:00,56.8,56.8,29.96,ENE,67,0.0,3.0,100,0.00,,,0.04,Wunderground v.1.15,2015-03-26 08:20:00,
2015-03-26 04:25:00,56.8,56.8,29.96,ENE,67,0.0,3.0,100,0.00,,,0.04,Wunderground v.1.15,2015-03-26 08:25:00,
2015-03-26 04:35:00,56.9,56.9,29.95,ENE,67,0.0,3.0,100,0.00,,,0.04,Wunderground v.1.15,2015-03-26 08:35:00,
2015-03-26 04:40:00,56.9,56.9,29.95,ENE,67,0.0,3.0,100,0.00,,,0.04,Wunderground v.1.15,2015-03-26 08:40:00,
2015-03-26 04:45:00,56.9,56.9,29.95,ENE,67,0.0,3.0,100,0.00,,,0.04,Wunderground v.1.15,2015-03-26 08:45:00,
2015-03-26 04:55:00,56.8,56.8,29.94,ENE,67,0.0,3.0,100,0.00,,,0.04,Wunderground v.1.15,2015-03-26 08:55:00,
2015-03-26 05:00:00,56.9,56.9,29.94,ENE,67,0.0,3.0,100,0.00,,,0.04,Wunderground v.1.15,2015-03-26 09:00:00,
2015-03-26 05:05:00,56.9,56.9,29.94,ENE,67,0.0,3.0,100,0.00,,,0.05,Wunderground v.1.15,2015-03-26 09:05:00,
2015-03-26 05:10:00,57.0,57.0,29.94,ENE,67,0.0,3.0,100,0.00,,,0.05,Wunderground v.1.15,2015-03-26 09:10:00,
2015-03-26 05:20:00,57.1,57.1,29.94,ENE,67,0.0,3.0,100,0.00,,,0.05,Wunderground v.1.15,2015-03-26 09:20:00,
2015-03-26 05:25:00,57.1,57.1,29.94,ENE,67,0.0,3.0,100,0.00,,,0.05,Wunderground v.1.15,2015-03-26 09:25:00,
2015-03-26 05:30:00,57.1,57.1,29.94,ENE,67,0.0,3.0,100,0.00,,,0.05,Wunderground v.1.15,2015-03-26 09:30:00,
2015-03-26 05:35:00,57.2,57.2,29.94,ENE,67,0.0,3.0,100,0.00,,,0.05,Wunderground v.1.15,2015-03-26 09:35:00,
2015-03-26 05:45:00,57.3,57.3,29.93,ENE,67,0.0,3.0,100,0.00,,,0.06,Wunderground v.1.15,2015-03-26 09:45:00,
2015-03-26 05:50:00,57.3,57.3,29.93,ENE,67,0.0,3.0,100,0.00,,,0.06,Wunderground v.1.15,2015-03-26 09:50:00,
2015-03-26 05:55:00,57.4,57.4,29.93,ENE,67,0.0,3.0,100,0.00,,,0.06,Wunderground v.1.15,2015-03-26 09:55:00,
2015-03-26 06:00:00,57.5,57.5,29.93,ENE,67,0.0,3.0,100,0.00,,,0.06,Wunderground v.1.15,2015-03-26 10:00:00,
2015-03-26 06:10:00,57.5,57.5,29.93,ENE,69,0.0,3.0,100,0.00,,,0.06,Wunderground v.1.15,2015-03-26 10:10:00,
2015-03-26 06:15:00,57.5,57.5,29.93,ENE,69,0.0,3.0,100,0.00,,,0.06,Wunderground v.1.15,2015-03-26 10:15:00,
2015-03-26 06:20:00,57.5,57.5,29.93,ENE,69,0.0,3.0,100,0.00,,,0.06,Wunderground v.1.15,2015-03-26 10:20:00,
2015-03-26 06:25:00,57.6,57.6,29.93,ENE,69,0.0,3.0,100,0.00,,,0.06,Wunderground v.1.15,2015-03-26 10:25:00,
2015-03-26 06:35:00,57.7,57.7,29.93,ENE,69,0.0,3.0,100,0.00,,,0.06,Wunderground v.1.15,2015-03-26 10:35:00,
2015-03-26 06:40:00,57.9,57.9,29.93,NW,315,0.0,3.0,100,0.00,,,0.06,Wunderground v.1.15,2015-03-26 10:40:00,
2015-03-26 06:45:00,58.1,58.1,29.93,NW,315,0.0,3.0,100,0.00,,,0.06,Wunderground v.1.15,2015-03-26 10:45:00,
2015-03-26 06:50:00,58.1,58.1,29.93,NW,315,0.0,3.0,100,0.00,,,0.06,Wunderground v.1.15,2015-03-26 10:50:00,
2015-03-26 07:00:00,58.4,58.4,29.93,NW,309,0.0,3.0,100,0.00,,,0.07,Wunderground v.1.15,2015-03-26 11:00:00,
2015-03-26 07:05:00,58.4,58.4,29.93,NW,310,0.0,3.0,100,0.00,,,0.07,Wunderground v.1.15,2015-03-26 11:05:00,
2015-03-26 07:10:00,58.7,58.7,29.92,NW,309,0.0,3.0,100,0.00,,,0.07,Wunderground v.1.15,2015-03-26 11:10:00,
2015-03-26 07:20:00,58.7,58.7,29.93,NW,310,0.0,3.0,100,0.00,,,0.07,Wunderground v.1.15,2015-03-26 11:20:00,
2015-03-26 07:25:00,58.5,58.5,29.92,NW,310,0.0,3.0,100,0.00,,,0.07,Wunderground v.1.15,2015-03-26 11:25:00,
2015-03-26 07:30:00,58.4,58.4,29.92,NW,309,0.0,3.0,100,0.00,,,0.07,Wunderground v.1.15,2015-03-26 11:30:00,
2015-03-26 07:35:00,58.3,58.3,29.92,West,276,0.0,3.0,100,0.00,,,0.07,Wunderground v.1.15,2015-03-26 11:35:00,
2015-03-26 07:45:00,58.1,58.1,29.93,West,260,0.0,3.0,100,0.00,,,0.07,Wunderground v.1.15,2015-03-26 11:45:00,
2015-03-26 07:50:00,58.0,58.0,29.93,West,263,1.0,1.0,100,0.00,,,0.07,Wunderground v.1.15,2015-03-26 11:50:00,
2015-03-26 07:55:00,57.9,57.9,29.93,West,265,0.0,3.0,100,0.00,,,0.07,Wunderground v.1.15,2015-03-26 11:55:00,
2015-03-26 08:00:00,57.7,57.7,29.93,West,265,0.0,3.0,100,0.00,,,0.07,Wunderground v.1.15,2015-03-26 12:00:00,
2015-03-26 08:10:00,57.5,57.5,29.93,West,269,0.0,3.0,100,0.00,,,0.08,Wunderground v.1.15,2015-03-26 12:10:00,
2015-03-26 08:15:00,57.4,57.4,29.93,West,269,0.0,3.0,100,0.00,,,0.08,Wunderground v.1.15,2015-03-26 12:15:00,
2015-03-26 08:20:00,57.5,57.5,29.93,West,269,0.0,3.0,100,0.00,,,0.08,Wunderground v.1.15,2015-03-26 12:20:00,
2015-03-26 08:30:00,57.3,57.3,29.93,West,270,0.0,3.0,100,0.00,,,0.08,Wunderground v.1.15,2015-03-26 12:30:00,
2015-03-26 08:35:00,57.2,57.2,29.93,West,270,0.0,3.0,100,0.00,,,0.08,Wunderground v.1.15,2015-03-26 12:35:00,
2015-03-26 08:40:00,57.3,57.3,29.93,West,272,0.0,3.0,100,0.00,,,0.08,Wunderground v.1.15,2015-03-26 12:40:00,
2015-03-26 08:45:00,57.2,57.2,29.93,West,277,0.0,3.0,100,0.00,,,0.08,Wunderground v.1.15,2015-03-26 12:45:00,
2015-03-26 08:55:00,57.1,57.1,29.93,West,279,0.0,3.0,100,0.00,,,0.08,Wunderground v.1.15,2015-03-26 12:55:00,
2015-03-26 09:00:00,57.1,57.1,29.92,West,280,0.0,3.0,100,0.00,,,0.08,Wunderground v.1.15,2015-03-26 13:00:00,
2015-03-26 09:05:00,57.1,57.1,29.92,West,279,0.0,3.0,100,0.00,,,0.08,Wunderground v.1.15,2015-03-26 13:05:00,
2015-03-26 09:15:00,57.4,57.4,29.93,West,279,0.0,3.0,100,0.00,,,0.08,Wunderground v.1.15,2015-03-26 13:15:00,
2015-03-26 09:20:00,57.7,57.7,29.92,WSW,257,0.0,4.0,100,0.00,,,0.08,Wunderground v.1.15,2015-03-26 13:20:00,
2015-03-26 09:25:00,58.1,58.1,29.92,WSW,258,1.0,4.0,100,0.00,,,0.08,Wunderground v.1.15,2015-03-26 13:25:00,
2015-03-26 09:30:00,58.6,58.6,29.92,West,269,2.0,4.0,100,0.00,,,0.08,Wunderground v.1.15,2015-03-26 13:30:00,
2015-03-26 09:40:00,59.0,59.0,29.92,WSW,246,3.0,3.0,100,0.00,,,0.08,Wunderground v.1.15,2015-03-26 13:40:00,
2015-03-26 09:45:00,59.1,59.1,29.93,SW,215,3.0,3.0,100,0.00,,,0.08,Wunderground v.1.15,2015-03-26 13:45:00,
2015-03-26 09:50:00,59.5,59.5,29.92,SW,232,3.0,3.0,100,0.00,,,0.08,Wunderground v.1.15,2015-03-26 13:50:00,
2015-03-26 10:00:00,59.8,59.8,29.92,SW,232,4.0,4.0,100,0.00,,,0.09,Wunderground v.1.15,2015-03-26 14:00:00,
2015-03-26 10:05:00,59.7,59.7,29.91,West,273,4.0,5.0,100,0.00,,,0.09,Wunderground v.1.15,2015-03-26 14:05:00,
2015-03-26 10:10:00,60.1,60.1,29.91,SSW,205,4.0,4.0,100,0.00,,,0.09,Wunderground v.1.15,2015-03-26 14:10:00,
2015-03-26 10:20:00,60.2,60.2,29.92,WSW,240,5.0,7.0,100,0.00,,,0.09,Wunderground v.1.15,2015-03-26 14:20:00,
2015-03-26 10:25:00,60.2,60.2,29.92,West,262,5.0,7.0,100,0.00,,,0.09,Wunderground v.1.15,2015-03-26 14:25:00,
2015-03-26 10:30:00,60.4,60.4,29.91,WSW,237,5.0,5.0,100,0.00,,,0.09,Wunderground v.1.15,2015-03-26 14:30:00,
2015-03-26 10:35:00,60.5,60.5,29.91,West,281,5.0,5.0,100,0.00,,,0.09,Wunderground v.1.15,2015-03-26 14:35:00,
2015-03-26 10:40:00,60.7,60.7,29.91,West,259,5.0,6.0,100,0.00,,,0.09,Wunderground v.1.15,2015-03-26 14:40:00,
2015-03-26 10:50:00,61.2,61.2,29.91,South,187,5.0,6.0,100,0.00,,,0.09,Wunderground v.1.15,2015-03-26 14:50:00,
2015-03-26 10:55:00,61.5,61.5,29.90,West,261,5.0,6.0,100,0.00,,,0.09,Wunderground v.1.15,2015-03-26 14:55:00,
2015-03-26 11:00:00,61.9,61.9,29.90,WSW,238,5.0,5.0,100,0.00,,,0.09,Wunderground v.1.15,2015-03-26 15:00:00,
2015-03-26 11:10:00,62.5,62.5,29.90,WSW,248,6.0,6.0,100,0.00,,,0.09,Wunderground v.1.15,2015-03-26 15:10:00,
2015-03-26 11:15:00,62.6,62.3,29.90,WSW,257,6.0,8.0,99,0.00,,,0.10,Wunderground v.1.15,2015-03-26 15:15:00,
2015-03-26 11:20:00,62.8,62.2,29.89,WSW,242,7.0,7.0,98,0.00,,,0.10,Wunderground v.1.15,2015-03-26 15:20:00,
2015-03-26 11:25:00,63.0,62.1,29.89,West,261,6.0,7.0,97,0.00,,,0.10,Wunderground v.1.15,2015-03-26 15:25:00,
2015-03-26 11:35:00,63.5,62.6,29.88,SSW,196,5.0,9.0,97,0.00,,,0.10,Wunderground v.1.15,2015-03-26 15:35:00,
2015-03-26 11:40:00,63.6,62.4,29.88,WSW,253,4.0,5.0,96,0.00,,,0.10,Wunderground v.1.15,2015-03-26 15:40:00,
2015-03-26 11:45:00,63.7,62.5,29.88,WSW,247,5.0,5.0,96,0.00,,,0.10,Wunderground v.1.15,2015-03-26 15:45:00,
2015-03-26 11:50:00,63.9,62.4,29.88,West,265,5.0,5.0,95,0.00,,,0.10,Wunderground v.1.15,2015-03-26 15:50:00,
2015-03-26 12:00:00,64.1,62.3,29.87,SW,218,5.0,5.0,94,0.00,,,0.10,Wunderground v.1.15,2015-03-26 16:00:00,
2015-03-26 12:05:00,64.4,62.3,29.87,WSW,241,6.0,6.0,93,0.00,,,0.10,Wunderground v.1.15,2015-03-26 16:05:00,
2015-03-26 12:10:00,64.6,62.5,29.86,SSW,212,6.0,6.0,93,0.00,,,0.10,Wunderground v.1.15,2015-03-26 16:10:00,
2015-03-26 12:15:00,64.7,62.6,29.86,West,263,7.0,7.0,93,0.00,,,0.10,Wunderground v.1.15,2015-03-26 16:15:00,
2015-03-26 12:25:00,65.1,62.7,29.85,WSW,251,7.0,12.0,92,0.00,,,0.10,Wunderground v.1.15,2015-03-26 16:25:00,
2015-03-26 12:30:00,65.2,62.8,29.85,West,265,7.0,7.0,92,0.00,,,0.10,Wunderground v.1.15,2015-03-26 16:30:00,
2015-03-26 12:40:00,65.4,62.7,29.84,West,267,6.0,6.0,91,0.00,,,0.10,Wunderground v.1.15,2015-03-26 16:40:00,
2015-03-26 12:45:00,65.7,63.0,29.85,WSW,249,5.0,6.0,91,0.00,,,0.10,Wunderground v.1.15,2015-03-26 16:45:00,
2015-03-26 12:50:00,65.8,62.8,29.84,SW,234,5.0,5.0,90,0.00,,,0.10,Wunderground v.1.15,2015-03-26 16:50:00,
2015-03-26 12:55:00,66.0,63.0,29.83,WSW,252,6.0,6.0,90,0.00,,,0.10,Wunderground v.1.15,2015-03-26 16:55:00,
2015-03-26 13:00:00,66.3,63.3,29.83,West,259,6.0,6.0,90,0.00,,,0.10,Wunderground v.1.15,2015-03-26 17:00:00,
2015-03-26 13:10:00,66.8,63.5,29.82,WNW,282,5.0,7.0,89,0.00,,,0.10,Wunderground v.1.15,2015-03-26 17:10:00,
2015-03-26 13:15:00,67.0,63.3,29.82,South,186,6.0,7.0,88,0.00,,,0.10,Wunderground v.1.15,2015-03-26 17:15:00,
2015-03-26 13:25:00,67.7,63.4,29.81,WSW,244,7.0,9.0,86,0.00,,,0.10,Wunderground v.1.15,2015-03-26 17:25:00,
2015-03-26 13:30:00,68.0,63.7,29.81,SW,228,7.0,7.0,86,0.00,,,0.10,Wunderground v.1.15,2015-03-26 17:30:00,
2015-03-26 13:35:00,68.4,63.7,29.80,SW,224,7.0,7.0,85,0.00,,,0.10,Wunderground v.1.15,2015-03-26 17:35:00,
2015-03-26 13:40:00,68.6,63.6,29.79,WSW,258,6.0,6.0,84,0.00,,,0.10,Wunderground v.1.15,2015-03-26 17:40:00,
2015-03-26 13:50:00,69.4,63.7,29.79,SSW,209,6.0,6.0,82,0.00,,,0.11,Wunderground v.1.15,2015-03-26 17:50:00,
2015-03-26 13:55:00,69.4,63.7,29.78,WSW,243,7.0,8.0,82,0.00,,,0.11,Wunderground v.1.15,2015-03-26 17:55:00,
2015-03-26 14:05:00,69.4,63.7,29.78,SE,143,8.0,9.0,82,0.00,,,0.11,Wunderground v.1.15,2015-03-26 18:05:00,
2015-03-26 14:10:00,69.8,63.7,29.78,SW,229,7.0,7.0,81,0.00,,,0.11,Wunderground v.1.15,2015-03-26 18:10:00,
2015-03-26 14:15:00,70.3,63.8,29.78,WSW,257,7.0,8.0,80,0.00,,,0.11,Wunderground v.1.15,2015-03-26 18:15:00,
2015-03-26 14:25:00,70.6,63.4,29.78,West,263,7.0,8.0,78,0.00,,,0.11,Wunderground v.1.15,2015-03-26 18:25:00,
2015-03-26 14:30:00,70.5,62.9,29.78,SW,235,7.0,8.0,77,0.00,,,0.11,Wunderground v.1.15,2015-03-26 18:30:00,
2015-03-26 14:35:00,70.4,62.8,29.78,WSW,242,8.0,8.0,77,0.00,,,0.11,Wunderground v.1.15,2015-03-26 18:35:00,
2015-03-26 14:40:00,70.6,63.0,29.78,SW,223,8.0,9.0,77,0.00,,,0.11,Wunderground v.1.15,2015-03-26 18:40:00,
2015-03-26 14:50:00,70.6,62.7,29.78,SW,234,9.0,9.0,76,0.00,,,0.11,Wunderground v.1.15,2015-03-26 18:50:00,
2015-03-26 14:55:00,70.4,62.1,29.78,WSW,245,10.0,10.0,75,0.00,,,0.11,Wunderground v.1.15,2015-03-26 18:55:00,
2015-03-26 15:00:00,70.6,62.3,29.77,SW,233,10.0,12.0,75,0.00,,,0.11,Wunderground v.1.15,2015-03-26 19:00:00,
2015-03-26 15:10:00,70.6,62.7,29.77,WSW,244,7.0,7.0,76,0.00,,,0.11,Wunderground v.1.15,2015-03-26 19:10:00,
2015-03-26 15:15:00,70.6,62.3,29.77,WSW,252,8.0,8.0,75,0.00,,,0.11,Wunderground v.1.15,2015-03-26 19:15:00,
2015-03-26 15:20:00,70.8,62.5,29.76,SSW,195,9.0,9.0,75,0.00,,,0.11,Wunderground v.1.15,2015-03-26 19:20:00,
2015-03-26 15:25:00,70.8,62.5,29.76,SSW,192,8.0,11.0,75,0.00,,,0.11,Wunderground v.1.15,2015-03-26 19:25:00,
2015-03-26 15:35:00,70.8,62.5,29.75,SW,227,9.0,9.0,75,0.00,,,0.11,Wunderground v.1.15,2015-03-26 19:35:00,
2015-03-26 15:40:00,70.9,62.6,29.75,SSW,208,9.0,12.0,75,0.00,,,0.11,Wunderground v.1.15,2015-03-26 19:40:00,
2015-03-26 15:50:00,71.0,62.7,29.75,WSW,257,10.0,10.0,75,0.00,,,0.11,Wunderground v.1.15,2015-03-26 19:50:00,
2015-03-26 15:55:00,71.3,63.0,29.75,WSW,254,8.0,13.0,75,0.00,,,0.11,Wunderground v.1.15,2015-03-26 19:55:00,
2015-03-26 16:00:00,71.3,62.6,29.74,WSW,251,9.0,12.0,74,0.00,,,0.11,Wunderground v.1.15,2015-03-26 20:00:00,
2015-03-26 16:10:00,71.6,62.5,29.74,SW,221,10.0,10.0,73,0.00,,,0.11,Wunderground v.1.15,2015-03-26 20:10:00,
2015-03-26 16:15:00,71.9,63.2,29.74,WSW,243,10.0,11.0,74,0.00,,,0.11,Wunderground v.1.15,2015-03-26 20:15:00,
2015-03-26 16:20:00,71.7,62.2,29.74,WSW,250,10.0,11.0,72,0.00,,,0.11,Wunderground v.1.15,2015-03-26 20:20:00,
2015-03-26 16:30:00,71.7,62.2,29.73,South,187,10.0,12.0,72,0.00,,,0.11,Wunderground v.1.15,2015-03-26 20:30:00,
2015-03-26 16:35:00,71.6,61.3,29.73,WSW,242,10.0,17.0,70,0.00,,,0.11,Wunderground v.1.15,2015-03-26 20:35:00,
2015-03-26 16:40:00,71.6,61.3,29.74,WSW,250,11.0,11.0,70,0.00,,,0.11,Wunderground v.1.15,2015-03-26 20:40:00,
2015-03-26 16:45:00,71.6,61.3,29.73,WNW,295,11.0,15.0,70,0.00,,,0.11,Wunderground v.1.15,2015-03-26 20:45:00,
2015-03-26 16:55:00,71.6,60.9,29.73,SW,232,10.0,10.0,69,0.00,,,0.11,Wunderground v.1.15,2015-03-26 20:55:00,
2015-03-26 17:00:00,71.6,60.9,29.73,WSW,253,10.0,10.0,69,0.00,,,0.11,Wunderground v.1.15,2015-03-26 21:00:00,
2015-03-26 17:05:00,71.5,60.8,29.73,SW,222,9.0,10.0,69,0.00,,,0.11,Wunderground v.1.15,2015-03-26 21:05:00,
2015-03-26 17:10:00,71.5,60.8,29.73,West,263,9.0,9.0,69,0.00,,,0.11,Wunderground v.1.15,2015-03-26 21:10:00,
2015-03-26 17:20:00,71.4,61.1,29.72,WSW,242,9.0,10.0,70,0.00,,,0.11,Wunderground v.1.15,2015-03-26 21:20:00,
2015-03-26 17:25:00,71.5,61.2,29.72,SW,232,8.0,10.0,70,0.00,,,0.11,Wunderground v.1.15,2015-03-26 21:25:00,
2015-03-26 17:30:00,71.5,60.8,29.71,SSW,210,7.0,7.0,69,0.00,,,0.11,Wunderground v.1.15,2015-03-26 21:30:00,
2015-03-26 17:40:00,71.4,61.1,29.71,WSW,246,8.0,8.0,70,0.00,,,0.11,Wunderground v.1.15,2015-03-26 21:40:00,
2015-03-26 17:45:00,71.4,61.1,29.71,WSW,245,6.0,8.0,70,0.00,,,0.11,Wunderground v.1.15,2015-03-26 21:45:00,
2015-03-26 17:50:00,71.4,61.1,29.71,WSW,245,6.0,9.0,70,0.00,,,0.11,Wunderground v.1.15,2015-03-26 21:50:00,
2015-03-26 17:55:00,71.3,61.4,29.70,WSW,249,6.0,9.0,71,0.00,,,0.11,Wunderground v.1.15,2015-03-26 21:55:00,
2015-03-26 18:05:00,71.2,61.7,29.70,SW,227,6.0,7.0,72,0.00,,,0.11,Wunderground v.1.15,2015-03-26 22:05:00,
2015-03-26 18:10:00,71.1,61.6,29.69,SW,234,5.0,6.0,72,0.00,,,0.11,Wunderground v.1.15,2015-03-26 22:10:00,
2015-03-26 18:15:00,70.9,61.8,29.69,WSW,242,6.0,6.0,73,0.00,,,0.11,Wunderground v.1.15,2015-03-26 22:15:00,
2015-03-26 18:25:00,70.7,61.6,29.68,West,268,7.0,9.0,73,0.00,,,0.11,Wunderground v.1.15,2015-03-26 22:25:00,
2015-03-26 18:30:00,70.7,62.0,29.68,SW,219,7.0,7.0,74,0.00,,,0.11,Wunderground v.1.15,2015-03-26 22:30:00,
2015-03-26 18:35:00,70.6,61.9,29.68,SW,217,6.0,7.0,74,0.00,,,0.11,Wunderground v.1.15,2015-03-26 22:35:00,
2015-03-26 18:40:00,70.4,61.7,29.68,SW,234,6.0,6.0,74,0.00,,,0.11,Wunderground v.1.15,2015-03-26 22:40:00,
2015-03-26 18:50:00,70.2,61.9,29.68,SSW,197,6.0,6.0,75,0.00,,,0.11,Wunderground v.1.15,2015-03-26 22:50:00,
2015-03-26 18:55:00,70.1,61.8,29.68,WSW,250,6.0,6.0,75,0.00,,,0.11,Wunderground v.1.15,2015-03-26 22:55:00,
2015-03-26 19:00:00,70.0,62.1,29.68,SW,221,6.0,6.0,76,0.00,,,0.11,Wunderground v.1.15,2015-03-26 23:00:00,
2015-03-26 19:05:00,69.9,62.0,29.68,WSW,251,6.0,7.0,76,0.00,,,0.11,Wunderground v.1.15,2015-03-26 23:05:00,
2015-03-26 19:15:00,69.6,62.1,29.68,SW,220,5.0,5.0,77,0.00,,,0.11,Wunderground v.1.15,2015-03-26 23:15:00,
2015-03-26 19:20:00,69.4,61.9,29.67,SSW,202,5.0,5.0,77,0.00,,,0.11,Wunderground v.1.15,2015-03-26 23:20:00,
2015-03-26 19:25:00,69.3,61.8,29.67,SSW,213,5.0,5.0,77,0.00,,,0.11,Wunderground v.1.15,2015-03-26 23:25:00,
2015-03-26 19:30:00,69.2,61.7,29.67,WSW,250,5.0,5.0,77,0.00,,,0.11,Wunderground v.1.15,2015-03-26 23:30:00,
2015-03-26 19:40:00,68.9,61.4,29.67,SSW,194,5.0,7.0,77,0.00,,,0.11,Wunderground v.1.15,2015-03-26 23:40:00,
2015-03-26 19:45:00,68.8,61.3,29.67,SW,219,5.0,7.0,77,0.00,,,0.11,Wunderground v.1.15,2015-03-26 23:45:00,
2015-03-26 19:50:00,68.7,61.2,29.67,SW,236,4.0,4.0,77,0.00,,,0.11,Wunderground v.1.15,2015-03-26 23:50:00,
2015-03-26 20:00:00,68.5,61.0,29.68,WSW,238,5.0,9.0,77,0.00,,,0.11,Wunderground v.1.15,2015-03-27 00:00:00,
2015-03-26 20:05:00,68.5,61.0,29.67,WSW,258,6.0,9.0,77,0.00,,,0.11,Wunderground v.1.15,2015-03-27 00:05:00,
2015-03-26 20:10:00,68.4,60.9,29.67,WSW,255,5.0,7.0,77,0.00,,,0.11,Wunderground v.1.15,2015-03-27 00:10:00,
2015-03-26 20:15:00,68.3,60.8,29.67,SW,227,5.0,7.0,77,0.00,,,0.11,Wunderground v.1.15,2015-03-27 00:15:00,
2015-03-26 20:25:00,68.2,60.7,29.67,SSW,209,6.0,7.0,77,0.00,,,0.11,Wunderground v.1.15,2015-03-27 00:25:00,
2015-03-26 20:30:00,68.2,60.7,29.67,SSW,211,6.0,7.0,77,0.00,,,0.11,Wunderground v.1.15,2015-03-27 00:30:00,
2015-03-26 20:35:00,68.1,60.6,29.67,West,265,6.0,7.0,77,0.00,,,0.11,Wunderground v.1.15,2015-03-27 00:35:00,
2015-03-26 20:45:00,68.0,60.5,29.67,WSW,250,5.0,5.0,77,0.00,,,0.11,Wunderground v.1.15,2015-03-27 00:45:00,
2015-03-26 20:50:00,68.0,60.5,29.67,WSW,241,6.0,6.0,77,0.00,,,0.11,Wunderground v.1.15,2015-03-27 00:50:00,